Check out our new BloomSky Weather System.

Active alerts


No alerts


Thunder radar  blitzortung!


Rain radar more information rain snow radar


Visit our other weather sites:

Template documentation
and downloads

And another site



Weather Underground History page Text

Daily Summary for April 11, 2017 Units:  English    Metric   Both
« Previous Day
Next Day »
Daily Weekly Monthly Yearly Custom
  High: Low: Average:
Temperature: 74.1 °F 61.0 °F 67.6 °F
Dew Point: 70.5 °F 60.4 °F 65.5 °F
Humidity: 98 % 86 % 93 %
Wind Speed: 13.0 mph 0.0 mph 2.2 mph
Wind Gust: 23.0 mph - -
Wind:- - SE
Pressure: 30.21 in 30.04 in -
Precipitation: 1.19 in    
Historical Graphs
 
 
Tabular Data for April 11, 2017
Time Temperature Dew Point Pressure Wind Wind Speed Wind Gust Humidity Rainfall Rate (Hourly)
00:00 72.7 °F 68.5 °F 30.07 in ESE 6.0 mph 12.0 mph 87 % 0.00 in
00:05 72.7 °F 68.5 °F 30.07 in SE 3.0 mph 12.0 mph 87 % 0.00 in
00:10 72.7 °F 68.5 °F 30.07 in SSE 5.0 mph 12.0 mph 87 % 0.00 in
00:15 72.7 °F 68.5 °F 30.07 in SE 6.0 mph 11.0 mph 87 % 0.00 in
00:20 72.7 °F 68.5 °F 30.08 in ESE 7.0 mph 12.0 mph 87 % 0.00 in
00:25 72.7 °F 68.5 °F 30.09 in SE 5.0 mph 12.0 mph 87 % 0.00 in
00:30 72.7 °F 68.5 °F 30.09 in SSE 3.0 mph 12.0 mph 87 % 0.00 in
00:35 72.7 °F 68.5 °F 30.09 in ESE 5.0 mph 9.0 mph 87 % 0.00 in
00:40 72.7 °F 68.5 °F 30.09 in SE 5.0 mph 8.0 mph 87 % 0.00 in
00:45 72.5 °F 68.4 °F 30.09 in ESE 6.0 mph 8.0 mph 87 % 0.00 in
00:50 72.5 °F 68.4 °F 30.09 in East 3.0 mph 9.0 mph 87 % 0.00 in
00:55 72.5 °F 68.4 °F 30.09 in SE 5.0 mph 9.0 mph 87 % 0.00 in
01:00 72.5 °F 68.4 °F 30.08 in SE 2.0 mph 9.0 mph 87 % 0.00 in
01:05 72.3 °F 68.2 °F 30.09 in ESE 4.0 mph 7.0 mph 87 % 0.00 in
01:10 72.3 °F 68.2 °F 30.09 in SE 5.0 mph 7.0 mph 87 % 0.00 in
01:15 72.3 °F 68.2 °F 30.08 in ESE 5.0 mph 9.0 mph 87 % 0.00 in
01:20 72.1 °F 68.0 °F 30.07 in SSE 3.0 mph 9.0 mph 87 % 0.00 in
01:25 72.1 °F 68.0 °F 30.07 in ESE 4.0 mph 9.0 mph 87 % 0.00 in
01:30 72.1 °F 68.0 °F 30.07 in ESE 6.0 mph 9.0 mph 87 % 0.00 in
01:35 72.1 °F 68.0 °F 30.06 in ESE 4.0 mph 8.0 mph 87 % 0.00 in
01:41 72.0 °F 67.8 °F 30.06 in ESE 9.0 mph 9.0 mph 87 % 0.00 in
01:46 72.0 °F 67.8 °F 30.06 in SSE 6.0 mph 9.0 mph 87 % 0.00 in
01:51 72.0 °F 67.8 °F 30.06 in East 7.0 mph 9.0 mph 87 % 0.00 in
01:56 72.0 °F 67.8 °F 30.05 in East 7.0 mph 10.0 mph 87 % 0.00 in
02:01 72.0 °F 67.5 °F 30.05 in SE 7.0 mph 11.0 mph 86 % 0.00 in
02:06 72.0 °F 67.5 °F 30.05 in East 7.0 mph 11.0 mph 86 % 0.00 in
02:11 71.8 °F 67.3 °F 30.05 in SE 4.0 mph 11.0 mph 86 % 0.00 in
02:16 71.8 °F 67.3 °F 30.06 in ESE 5.0 mph 10.0 mph 86 % 0.00 in
02:21 71.8 °F 67.3 °F 30.06 in South 2.0 mph 11.0 mph 86 % 0.00 in
02:26 71.8 °F 67.3 °F 30.06 in SSE 2.0 mph 11.0 mph 86 % 0.00 in
02:31 71.8 °F 67.3 °F 30.06 in SSE 4.0 mph 11.0 mph 86 % 0.00 in
02:36 71.8 °F 67.3 °F 30.06 in SE 4.0 mph 10.0 mph 86 % 0.00 in
02:41 71.6 °F 67.1 °F 30.06 in SE 5.0 mph 8.0 mph 86 % 0.00 in
02:46 71.6 °F 67.5 °F 30.06 in SSW 4.0 mph 8.0 mph 87 % 0.00 in
02:51 71.6 °F 67.5 °F 30.06 in SE 4.0 mph 8.0 mph 87 % 0.00 in
02:56 71.8 °F 67.6 °F 30.06 in ESE 4.0 mph 8.0 mph 87 % 0.00 in
03:01 71.8 °F 67.6 °F 30.07 in ESE 4.0 mph 8.0 mph 87 % 0.00 in
03:06 71.8 °F 67.6 °F 30.07 in SSE 2.0 mph 6.0 mph 87 % 0.00 in
03:11 71.8 °F 67.6 °F 30.07 in SE 4.0 mph 6.0 mph 87 % 0.00 in
03:16 71.8 °F 68.0 °F 30.07 in South 2.0 mph 7.0 mph 88 % 0.00 in
03:21 71.8 °F 67.6 °F 30.06 in SE 4.0 mph 7.0 mph 87 % 0.00 in
03:26 71.8 °F 68.0 °F 30.06 in SE 2.0 mph 7.0 mph 88 % 0.00 in
03:31 71.6 °F 67.8 °F 30.06 in SSE 1.0 mph 7.0 mph 88 % 0.00 in
03:36 71.6 °F 67.8 °F 30.06 in ESE 6.0 mph 7.0 mph 88 % 0.00 in
03:41 71.8 °F 67.6 °F 30.06 in East 6.0 mph 9.0 mph 87 % 0.00 in
03:46 71.8 °F 67.6 °F 30.06 in SE 3.0 mph 9.0 mph 87 % 0.00 in
03:51 71.6 °F 67.5 °F 30.06 in SE 6.0 mph 9.0 mph 87 % 0.00 in
03:56 71.6 °F 67.5 °F 30.06 in SSE 4.0 mph 8.0 mph 87 % 0.00 in
04:01 71.4 °F 67.3 °F 30.06 in South 4.0 mph 8.0 mph 87 % 0.00 in
04:06 71.4 °F 67.6 °F 30.05 in ESE 2.0 mph 8.0 mph 88 % 0.00 in
04:11 71.2 °F 67.5 °F 30.05 in ESE 5.0 mph 8.0 mph 88 % 0.00 in
04:16 71.2 °F 67.5 °F 30.05 in ESE 3.0 mph 8.0 mph 88 % 0.00 in
04:21 71.1 °F 67.3 °F 30.05 in SE 1.0 mph 8.0 mph 88 % 0.00 in
04:26 70.9 °F 67.5 °F 30.05 in ENE 2.0 mph 8.0 mph 89 % 0.00 in
04:31 70.9 °F 67.5 °F 30.05 in SE 1.0 mph 7.0 mph 89 % 0.00 in
04:36 70.5 °F 67.1 °F 30.04 in Calm   3.0 mph 89 % 0.00 in
04:41 70.5 °F 67.5 °F 30.05 in ESE 2.0 mph 3.0 mph 90 % 0.00 in
04:46 70.5 °F 67.5 °F 30.05 in SSE 2.0 mph 4.0 mph 90 % 0.00 in
04:51 70.3 °F 67.3 °F 30.05 in ESE 4.0 mph 5.0 mph 90 % 0.00 in
04:56 70.3 °F 67.3 °F 30.05 in East 3.0 mph 5.0 mph 90 % 0.00 in
05:01 70.3 °F 67.6 °F 30.05 in Calm   6.0 mph 91 % 0.00 in
05:06 70.2 °F 67.5 °F 30.06 in East 1.0 mph 6.0 mph 91 % 0.00 in
05:11 70.2 °F 67.5 °F 30.06 in East 2.0 mph 6.0 mph 91 % 0.00 in
05:16 70.2 °F 67.5 °F 30.06 in Calm   3.0 mph 91 % 0.00 in
05:21 70.0 °F 67.3 °F 30.05 in East 1.0 mph 4.0 mph 91 % 0.00 in
05:26 70.0 °F 67.3 °F 30.05 in SE 2.0 mph 4.0 mph 91 % 0.00 in
05:31 70.0 °F 67.3 °F 30.05 in SE 2.0 mph 5.0 mph 91 % 0.00 in
05:36 70.0 °F 67.3 °F 30.05 in ESE 1.0 mph 6.0 mph 91 % 0.00 in
05:41 70.0 °F 67.5 °F 30.06 in SE 1.0 mph 6.0 mph 92 % 0.00 in
05:46 70.0 °F 67.3 °F 30.06 in ESE 3.0 mph 6.0 mph 91 % 0.00 in
05:51 70.0 °F 67.3 °F 30.06 in ESE 2.0 mph 6.0 mph 91 % 0.00 in
05:56 70.0 °F 67.5 °F 30.06 in SE 2.0 mph 6.0 mph 92 % 0.00 in
06:01 70.0 °F 67.5 °F 30.06 in ESE 2.0 mph 6.0 mph 92 % 0.00 in
06:06 70.2 °F 67.6 °F 30.06 in ESE 3.0 mph 6.0 mph 92 % 0.00 in
06:11 70.2 °F 67.6 °F 30.06 in Calm   4.0 mph 92 % 0.00 in
06:16 70.2 °F 67.6 °F 30.06 in ESE 2.0 mph 4.0 mph 92 % 0.00 in
06:21 70.2 °F 67.6 °F 30.06 in SE 1.0 mph 4.0 mph 92 % 0.00 in
06:26 70.2 °F 67.6 °F 30.06 in SE 2.0 mph 4.0 mph 92 % 0.00 in
06:31 70.2 °F 67.6 °F 30.06 in ESE 1.0 mph 4.0 mph 92 % 0.00 in
06:36 70.2 °F 67.6 °F 30.06 in East 1.0 mph 4.0 mph 92 % 0.00 in
06:41 70.2 °F 67.6 °F 30.06 in Calm   4.0 mph 92 % 0.00 in
06:46 70.2 °F 67.6 °F 30.07 in Calm   3.0 mph 92 % 0.00 in
06:52 70.2 °F 67.6 °F 30.06 in Calm   2.0 mph 92 % 0.00 in
06:57 70.2 °F 67.6 °F 30.07 in Calm   2.0 mph 92 % 0.00 in
07:02 70.2 °F 67.6 °F 30.07 in Calm   2.0 mph 92 % 0.00 in
07:07 70.2 °F 67.6 °F 30.06 in Calm   2.0 mph 92 % 0.00 in
07:12 70.3 °F 67.8 °F 30.06 in Calm   2.0 mph 92 % 0.00 in
07:17 70.3 °F 67.8 °F 30.06 in North 1.0 mph 3.0 mph 92 % 0.00 in
07:22 70.3 °F 67.8 °F 30.06 in East 1.0 mph 3.0 mph 92 % 0.00 in
07:27 70.3 °F 67.8 °F 30.06 in ESE 1.0 mph 3.0 mph 92 % 0.00 in
07:32 70.3 °F 67.8 °F 30.06 in East 1.0 mph 3.0 mph 92 % 0.00 in
07:37 70.3 °F 68.2 °F 30.07 in Calm   3.0 mph 93 % 0.00 in
07:42 70.3 °F 68.2 °F 30.07 in NNW 1.0 mph 3.0 mph 93 % 0.00 in
07:47 70.3 °F 68.2 °F 30.07 in Calm   5.0 mph 93 % 0.00 in
07:52 70.3 °F 68.2 °F 30.07 in ENE 3.0 mph 5.0 mph 93 % 0.00 in
07:57 70.3 °F 68.2 °F 30.08 in NW 1.0 mph 7.0 mph 93 % 0.00 in
08:02 70.5 °F 68.4 °F 30.09 in NNW 3.0 mph 7.0 mph 93 % 0.00 in
08:07 70.5 °F 68.4 °F 30.09 in Calm   7.0 mph 93 % 0.00 in
08:12 70.7 °F 68.5 °F 30.09 in ENE 3.0 mph 4.0 mph 93 % 0.00 in
08:17 70.9 °F 68.7 °F 30.09 in NNW 2.0 mph 6.0 mph 93 % 0.00 in
08:22 70.9 °F 68.7 °F 30.09 in Calm   6.0 mph 93 % 0.00 in
08:27 70.9 °F 68.7 °F 30.09 in North 2.0 mph 6.0 mph 93 % 0.00 in
08:32 71.1 °F 68.9 °F 30.10 in NW 2.0 mph 5.0 mph 93 % 0.00 in
08:37 71.1 °F 68.9 °F 30.10 in NNW 2.0 mph 5.0 mph 93 % 0.00 in
08:42 71.1 °F 68.9 °F 30.10 in Calm   5.0 mph 93 % 0.00 in
08:47 71.1 °F 68.9 °F 30.10 in ENE 2.0 mph 5.0 mph 93 % 0.00 in
08:52 71.1 °F 68.9 °F 30.10 in NNW 1.0 mph 5.0 mph 93 % 0.00 in
08:57 71.2 °F 69.1 °F 30.10 in Calm   4.0 mph 93 % 0.00 in
09:02 71.2 °F 69.1 °F 30.11 in ENE 3.0 mph 7.0 mph 93 % 0.00 in
09:07 71.2 °F 69.1 °F 30.10 in North 3.0 mph 7.0 mph 93 % 0.00 in
09:12 71.4 °F 69.3 °F 30.11 in ENE 2.0 mph 7.0 mph 93 % 0.00 in
09:17 71.4 °F 69.3 °F 30.11 in ENE 1.0 mph 6.0 mph 93 % 0.00 in
09:22 71.8 °F 69.3 °F 30.11 in East 1.0 mph 6.0 mph 92 % 0.00 in
09:27 71.8 °F 69.3 °F 30.12 in NNW 2.0 mph 6.0 mph 92 % 0.00 in
09:32 72.0 °F 69.4 °F 30.12 in NNW 2.0 mph 6.0 mph 92 % 0.00 in
09:37 72.0 °F 69.4 °F 30.11 in North 2.0 mph 6.0 mph 92 % 0.00 in
09:42 72.1 °F 69.4 °F 30.12 in ENE 6.0 mph 9.0 mph 91 % 0.00 in
09:47 72.3 °F 69.6 °F 30.12 in ESE 2.0 mph 9.0 mph 91 % 0.00 in
09:52 72.7 °F 70.0 °F 30.12 in East 2.0 mph 9.0 mph 91 % 0.00 in
09:57 72.7 °F 69.6 °F 30.13 in North 1.0 mph 6.0 mph 90 % 0.00 in
10:02 72.9 °F 69.8 °F 30.13 in NE 1.0 mph 6.0 mph 90 % 0.00 in
10:07 73.0 °F 70.0 °F 30.14 in Calm   6.0 mph 90 % 0.00 in
10:12 73.0 °F 69.6 °F 30.14 in Calm   6.0 mph 89 % 0.00 in
10:17 73.2 °F 69.8 °F 30.13 in NNW 3.0 mph 5.0 mph 89 % 0.00 in
10:22 73.2 °F 69.8 °F 30.12 in East 4.0 mph 5.0 mph 89 % 0.00 in
10:27 73.4 °F 70.0 °F 30.12 in East 4.0 mph 10.0 mph 89 % 0.00 in
10:32 73.8 °F 70.3 °F 30.13 in ESE 3.0 mph 10.0 mph 89 % 0.00 in
10:37 73.9 °F 70.5 °F 30.13 in ESE 1.0 mph 10.0 mph 89 % 0.00 in
10:43 74.1 °F 70.3 °F 30.14 in ESE 1.0 mph 8.0 mph 88 % 0.00 in
10:48 74.1 °F 70.3 °F 30.14 in East 1.0 mph 9.0 mph 88 % 0.00 in
10:53 74.1 °F 70.0 °F 30.14 in East 1.0 mph 9.0 mph 87 % 0.00 in
10:58 74.1 °F 70.3 °F 30.14 in ESE 4.0 mph 9.0 mph 88 % 0.00 in
11:03 73.9 °F 69.8 °F 30.14 in ESE 2.0 mph 8.0 mph 87 % 0.00 in
11:08 74.1 °F 70.0 °F 30.14 in Calm   6.0 mph 87 % 0.00 in
11:13 74.1 °F 70.0 °F 30.14 in WNW 2.0 mph 6.0 mph 87 % 0.00 in
11:18 74.1 °F 70.0 °F 30.14 in NE 3.0 mph 6.0 mph 87 % 0.00 in
11:23 74.1 °F 69.6 °F 30.15 in East 3.0 mph 5.0 mph 86 % 0.00 in
11:28 74.1 °F 69.6 °F 30.15 in Calm   5.0 mph 86 % 0.00 in
11:33 74.1 °F 69.6 °F 30.16 in NNE 1.0 mph 5.0 mph 86 % 0.00 in
11:38 74.1 °F 70.0 °F 30.16 in NW 2.0 mph 4.0 mph 87 % 0.00 in
11:39 74.1 °F 70.0 °F 30.17 in WNW 2.0 mph 4.0 mph 87 % 0.00 in
11:44 73.6 °F 69.8 °F 30.17 in North 5.0 mph 6.0 mph 88 % 0.00 in
11:49 73.2 °F 69.8 °F 30.17 in WNW 3.0 mph 6.0 mph 89 % 0.00 in
11:54 72.7 °F 69.6 °F 30.17 in NW 2.0 mph 6.0 mph 90 % 0.00 in
11:59 72.3 °F 69.6 °F 30.17 in NW 3.0 mph 6.0 mph 91 % 0.00 in
12:04 72.0 °F 69.4 °F 30.17 in NW 4.0 mph 6.0 mph 92 % 0.00 in
12:09 70.9 °F 67.8 °F 30.18 in NW 13.0 mph 13.0 mph 90 % 0.00 in
12:14 68.0 °F 64.4 °F 30.19 in NW 10.0 mph 19.0 mph 88 % 0.01 in
12:19 66.2 °F 63.5 °F 30.20 in NNW 2.0 mph 23.0 mph 91 % 0.01 in
12:24 65.1 °F 62.8 °F 30.20 in NW 4.0 mph 23.0 mph 92 % 0.04 in
12:29 64.6 °F 62.4 °F 30.19 in East 4.0 mph 23.0 mph 93 % 0.06 in
12:34 64.2 °F 62.4 °F 30.19 in NNW 5.0 mph 15.0 mph 94 % 0.07 in
12:39 64.0 °F 62.6 °F 30.19 in WNW 2.0 mph 13.0 mph 95 % 0.07 in
12:44 63.9 °F 62.4 °F 30.20 in North 3.0 mph 13.0 mph 95 % 0.24 in
12:49 63.9 °F 62.8 °F 30.21 in Calm   13.0 mph 96 % 0.31 in
12:54 63.7 °F 62.6 °F 30.20 in ENE 1.0 mph 13.0 mph 96 % 0.35 in
12:59 63.3 °F 62.2 °F 30.20 in Calm   13.0 mph 96 % 0.41 in
13:04 63.3 °F 62.2 °F 30.21 in Calm   7.0 mph 96 % 0.54 in
13:09 63.1 °F 62.1 °F 30.21 in Calm   7.0 mph 96 % 0.59 in
13:11 63.1 °F 62.1 °F 30.21 in Calm   7.0 mph 96 % 0.63 in
13:16 63.1 °F 62.2 °F 30.19 in Calm   4.0 mph 97 % 0.65 in
13:21 63.1 °F 62.2 °F 30.18 in SE 1.0 mph 4.0 mph 97 % 0.65 in
13:26 63.3 °F 62.4 °F 30.17 in East 3.0 mph 4.0 mph 97 % 0.68 in
13:31 63.3 °F 62.4 °F 30.17 in ESE 5.0 mph 7.0 mph 97 % 0.68 in
13:36 63.3 °F 62.4 °F 30.16 in Calm   8.0 mph 97 % 0.68 in
13:42 63.3 °F 62.4 °F 30.16 in East 1.0 mph 8.0 mph 97 % 0.50 in
13:47 63.3 °F 62.4 °F 30.15 in Calm   11.0 mph 97 % 0.44 in
13:52 63.3 °F 62.4 °F 30.15 in East 2.0 mph 11.0 mph 97 % 0.40 in
13:57 63.5 °F 63.0 °F 30.15 in ENE 3.0 mph 11.0 mph 98 % 0.35 in
14:02 63.7 °F 63.1 °F 30.16 in ESE 10.0 mph 10.0 mph 98 % 0.22 in
14:07 63.9 °F 63.3 °F 30.18 in East 5.0 mph 10.0 mph 98 % 0.17 in
14:12 63.9 °F 63.3 °F 30.19 in SE 3.0 mph 10.0 mph 98 % 0.12 in
14:17 63.9 °F 63.3 °F 30.18 in SSE 5.0 mph 10.0 mph 98 % 0.10 in
14:22 63.9 °F 63.3 °F 30.18 in SSW 3.0 mph 8.0 mph 98 % 0.06 in
14:27 63.9 °F 63.3 °F 30.18 in ESE 4.0 mph 8.0 mph 98 % 0.03 in
14:32 63.9 °F 63.3 °F 30.18 in SSW 3.0 mph 6.0 mph 98 % 0.03 in
14:34 63.9 °F 63.0 °F 30.18 in Calm   6.0 mph 97 % 0.03 in
14:39 63.7 °F 62.8 °F 30.18 in Calm   6.0 mph 97 % 0.04 in
14:44 63.7 °F 63.1 °F 30.17 in Calm   6.0 mph 98 % 0.04 in
14:49 63.7 °F 63.1 °F 30.17 in ENE 3.0 mph 5.0 mph 98 % 0.04 in
14:54 63.7 °F 63.1 °F 30.16 in East 1.0 mph 4.0 mph 98 % 0.06 in
14:59 63.7 °F 63.1 °F 30.15 in East 2.0 mph 4.0 mph 98 % 0.06 in
15:04 63.7 °F 63.1 °F 30.14 in Calm   4.0 mph 98 % 0.08 in
15:09 63.7 °F 63.1 °F 30.14 in SSE 1.0 mph 4.0 mph 98 % 0.11 in
15:14 63.7 °F 63.1 °F 30.15 in SSE 1.0 mph 4.0 mph 98 % 0.14 in
15:19 63.7 °F 63.1 °F 30.15 in SE 1.0 mph 3.0 mph 98 % 0.16 in
15:24 63.7 °F 63.1 °F 30.15 in SE 2.0 mph 4.0 mph 98 % 0.18 in
15:29 63.9 °F 63.3 °F 30.16 in SSE 1.0 mph 5.0 mph 98 % 0.19 in
15:34 63.9 °F 63.3 °F 30.15 in Calm   5.0 mph 98 % 0.20 in
15:39 63.9 °F 63.3 °F 30.15 in SE 1.0 mph 5.0 mph 98 % 0.20 in
15:44 63.7 °F 63.1 °F 30.14 in SE 4.0 mph 5.0 mph 98 % 0.22 in
15:49 63.7 °F 63.1 °F 30.13 in ESE 4.0 mph 6.0 mph 98 % 0.23 in
15:54 63.9 °F 63.3 °F 30.13 in SSE 5.0 mph 6.0 mph 98 % 0.23 in
15:59 63.9 °F 63.3 °F 30.13 in SSE 5.0 mph 7.0 mph 98 % 0.24 in
16:04 63.9 °F 63.3 °F 30.12 in SE 5.0 mph 7.0 mph 98 % 0.22 in
16:09 63.9 °F 63.3 °F 30.12 in SE 7.0 mph 10.0 mph 98 % 0.21 in
16:14 63.9 °F 63.3 °F 30.12 in SE 7.0 mph 11.0 mph 98 % 0.20 in
16:24 63.7 °F 63.1 °F 30.10 in SE 7.0 mph 11.0 mph 98 % 0.18 in
16:29 63.7 °F 63.1 °F 30.09 in South 7.0 mph 12.0 mph 98 % 0.18 in
16:30 63.7 °F 63.1 °F 30.09 in SE 5.0 mph 12.0 mph 98 % 0.18 in
16:35 63.5 °F 63.0 °F 30.12 in SSE 11.0 mph 12.0 mph 98 % 0.18 in
16:40 63.3 °F 62.8 °F 30.13 in South 2.0 mph 12.0 mph 98 % 0.18 in
16:45 63.3 °F 62.8 °F 30.12 in SW 5.0 mph 11.0 mph 98 % 0.18 in
16:50 63.3 °F 62.8 °F 30.12 in SSE 4.0 mph 11.0 mph 98 % 0.15 in
16:55 63.3 °F 62.8 °F 30.12 in SE 3.0 mph 8.0 mph 98 % 0.15 in
17:00 63.3 °F 62.8 °F 30.11 in East 3.0 mph 9.0 mph 98 % 0.12 in
17:05 63.3 °F 62.8 °F 30.11 in South 5.0 mph 9.0 mph 98 % 0.10 in
17:10 63.3 °F 62.8 °F 30.11 in ESE 6.0 mph 9.0 mph 98 % 0.09 in
17:15 63.3 °F 62.8 °F 30.11 in SE 4.0 mph 10.0 mph 98 % 0.08 in
17:20 63.3 °F 62.8 °F 30.10 in SE 3.0 mph 10.0 mph 98 % 0.07 in
17:25 63.3 °F 62.4 °F 30.10 in SE 2.0 mph 10.0 mph 97 % 0.05 in
17:30 63.3 °F 62.4 °F 30.10 in East 1.0 mph 7.0 mph 97 % 0.03 in
17:35 63.5 °F 62.6 °F 30.09 in East 2.0 mph 7.0 mph 97 % 0.01 in
17:40 63.5 °F 62.6 °F 30.09 in ENE 1.0 mph 5.0 mph 97 % 0.00 in
17:45 63.5 °F 62.6 °F 30.08 in SE 1.0 mph 5.0 mph 97 % 0.00 in
17:50 63.5 °F 62.6 °F 30.09 in NNE 1.0 mph 5.0 mph 97 % 0.00 in
17:55 63.7 °F 62.8 °F 30.10 in NNW 2.0 mph 5.0 mph 97 % 0.00 in
18:00 63.9 °F 63.0 °F 30.10 in NNW 2.0 mph 5.0 mph 97 % 0.00 in
18:05 63.9 °F 63.0 °F 30.09 in NNW 1.0 mph 5.0 mph 97 % 0.00 in
18:10 63.9 °F 63.0 °F 30.09 in NE 1.0 mph 5.0 mph 97 % 0.00 in
18:15 63.9 °F 63.0 °F 30.09 in North 2.0 mph 7.0 mph 97 % 0.00 in
18:20 64.0 °F 63.1 °F 30.08 in NE 2.0 mph 7.0 mph 97 % 0.00 in
18:25 63.9 °F 63.0 °F 30.08 in Calm   10.0 mph 97 % 0.00 in
18:30 63.9 °F 63.0 °F 30.08 in NE 3.0 mph 10.0 mph 97 % 0.00 in
18:35 63.9 °F 63.0 °F 30.08 in Calm   10.0 mph 97 % 0.00 in
18:40 63.9 °F 63.0 °F 30.09 in SE 1.0 mph 7.0 mph 97 % 0.00 in
18:45 63.9 °F 63.0 °F 30.09 in NNW 3.0 mph 7.0 mph 97 % 0.00 in
18:50 63.9 °F 63.0 °F 30.10 in NE 4.0 mph 7.0 mph 97 % 0.00 in
18:55 63.9 °F 63.0 °F 30.10 in ENE 1.0 mph 7.0 mph 97 % 0.00 in
19:00 63.9 °F 63.0 °F 30.11 in ENE 6.0 mph 7.0 mph 97 % 0.00 in
19:05 63.9 °F 63.0 °F 30.11 in NW 2.0 mph 7.0 mph 97 % 0.00 in
19:10 63.7 °F 62.8 °F 30.11 in West 1.0 mph 7.0 mph 97 % 0.00 in
19:15 63.7 °F 62.8 °F 30.11 in ENE 3.0 mph 7.0 mph 97 % 0.00 in
19:20 63.7 °F 62.8 °F 30.11 in Calm   7.0 mph 97 % 0.00 in
19:25 63.7 °F 62.8 °F 30.11 in Calm   5.0 mph 97 % 0.00 in
19:30 63.7 °F 62.8 °F 30.11 in Calm   5.0 mph 97 % 0.00 in
19:35 63.7 °F 62.8 °F 30.11 in Calm   5.0 mph 97 % 0.00 in
19:40 63.7 °F 62.8 °F 30.11 in North 1.0 mph 5.0 mph 97 % 0.00 in
19:45 63.7 °F 62.8 °F 30.11 in NW 2.0 mph 5.0 mph 97 % 0.00 in
19:50 63.7 °F 62.8 °F 30.11 in Calm   5.0 mph 97 % 0.00 in
19:55 63.5 °F 62.6 °F 30.11 in NE 4.0 mph 7.0 mph 97 % 0.00 in
20:00 63.5 °F 62.6 °F 30.12 in Calm   7.0 mph 97 % 0.00 in
20:05 63.3 °F 62.4 °F 30.12 in Calm   7.0 mph 97 % 0.00 in
20:10 63.3 °F 62.4 °F 30.12 in Calm   7.0 mph 97 % 0.00 in
20:15 63.3 °F 62.4 °F 30.12 in NE 1.0 mph 5.0 mph 97 % 0.00 in
20:20 63.3 °F 62.4 °F 30.12 in Calm   5.0 mph 97 % 0.00 in
20:25 63.5 °F 62.6 °F 30.12 in Calm   5.0 mph 97 % 0.00 in
20:31 63.5 °F 62.6 °F 30.12 in Calm   5.0 mph 97 % 0.00 in
20:36 63.5 °F 62.6 °F 30.12 in ESE 1.0 mph 5.0 mph 97 % 0.00 in
20:41 63.5 °F 62.6 °F 30.13 in Calm   5.0 mph 97 % 0.00 in
20:46 63.5 °F 62.6 °F 30.13 in Calm   4.0 mph 97 % 0.00 in
20:51 63.5 °F 62.6 °F 30.13 in Calm   3.0 mph 97 % 0.00 in
20:53 63.5 °F 62.6 °F 30.13 in Calm   3.0 mph 97 % 0.00 in
20:58 63.5 °F 62.6 °F 30.13 in East 1.0 mph 3.0 mph 97 % 0.00 in
21:03 63.5 °F 62.6 °F 30.14 in Calm   1.0 mph 97 % 0.00 in
21:08 63.5 °F 62.6 °F 30.14 in Calm   1.0 mph 97 % 0.00 in
21:13 63.5 °F 62.6 °F 30.14 in Calm   1.0 mph 97 % 0.00 in
21:18 63.5 °F 62.6 °F 30.15 in Calm   2.0 mph 97 % 0.00 in
21:23 63.7 °F 62.8 °F 30.15 in Calm   2.0 mph 97 % 0.00 in
21:28 63.7 °F 62.8 °F 30.15 in SSE 1.0 mph 2.0 mph 97 % 0.00 in
21:33 63.7 °F 62.8 °F 30.15 in SE 2.0 mph 2.0 mph 97 % 0.00 in
21:38 63.7 °F 62.8 °F 30.15 in SE 1.0 mph 2.0 mph 97 % 0.00 in
21:43 63.7 °F 62.8 °F 30.14 in Calm   2.0 mph 97 % 0.00 in
21:48 63.5 °F 62.6 °F 30.15 in Calm   2.0 mph 97 % 0.00 in
21:53 63.3 °F 62.4 °F 30.15 in Calm   1.0 mph 97 % 0.00 in
21:55 63.3 °F 62.4 °F 30.15 in Calm   1.0 mph 97 % 0.00 in
22:00 63.1 °F 62.2 °F 30.15 in Calm   1.0 mph 97 % 0.00 in
22:05 62.8 °F 61.9 °F 30.15 in Calm   1.0 mph 97 % 0.00 in
22:10 63.0 °F 62.1 °F 30.15 in Calm   1.0 mph 97 % 0.00 in
22:15 62.8 °F 61.9 °F 30.15 in Calm   1.0 mph 97 % 0.00 in
22:20 62.4 °F 61.5 °F 30.15 in Calm   1.0 mph 97 % 0.00 in
22:25 62.2 °F 61.3 °F 30.16 in Calm     97 % 0.00 in
22:30 62.2 °F 61.3 °F 30.16 in Calm     97 % 0.00 in
22:35 62.1 °F 61.2 °F 30.16 in Calm     97 % 0.00 in
22:40 62.1 °F 61.2 °F 30.16 in Calm   1.0 mph 97 % 0.00 in
22:45 61.9 °F 61.0 °F 30.16 in Calm   1.0 mph 97 % 0.00 in
22:50 61.7 °F 60.8 °F 30.16 in Calm   1.0 mph 97 % 0.00 in
22:55 61.5 °F 61.0 °F 30.15 in Calm   1.0 mph 98 % 0.00 in
23:00 61.5 °F 60.6 °F 30.15 in Calm   1.0 mph 97 % 0.00 in
23:05 61.3 °F 60.8 °F 30.15 in Calm   1.0 mph 98 % 0.00 in
23:10 61.3 °F 60.8 °F 30.15 in Calm     98 % 0.00 in
23:15 61.3 °F 60.8 °F 30.15 in Calm     98 % 0.00 in
23:20 61.3 °F 60.8 °F 30.15 in Calm   1.0 mph 98 % 0.00 in
23:25 61.2 °F 60.6 °F 30.15 in Calm   1.0 mph 98 % 0.00 in
23:30 61.0 °F 60.4 °F 30.15 in Calm   1.0 mph 98 % 0.00 in
23:35 61.0 °F 60.4 °F 30.15 in Calm   1.0 mph 98 % 0.00 in
23:40 61.0 °F 60.4 °F 30.14 in Calm   1.0 mph 98 % 0.00 in
23:45 61.0 °F 60.4 °F 30.14 in NW 1.0 mph 1.0 mph 98 % 0.00 in
23:50 61.0 °F 60.4 °F 30.14 in Calm   1.0 mph 98 % 0.00 in
23:55 61.0 °F 60.4 °F 30.14 in Calm   1.0 mph 98 % 0.00 in
Spring, Texas: Villages of Bridgestone
Compliments of Weather Underground - 2.75 mb

Script developed by  Jim McMurry - jmcmurry@mwt.net Adapted for the template by  Wim van der Kuil - Leuven-Template.eu

You find our weather info also at:

UK Metoffice

WeatherCloud

Weather Underground

Mid-South Weather Network

AWEKAS

Citizen Weather Observer Program (CWOP)

HAMweather, WeatherForYou, PWS Weather

Equipment we use:

Weather-station
Davis Vantage Vue

Weather-program
Meteohub

Weather-server
Debian 7.9 x86 (Guest)

Provider
DreamHost

Davis Vantage Vue

Meteohub

Debian 7.9 x86 (Guest)

DreamHost